Time,TemperatureF,DewpointF,PressureIn,WindDirection,WindDirectionDegrees,WindSpeedMPH,WindSpeedGustMPH,Humidity,HourlyPrecipIn,Conditions,Clouds,dailyrainin,SoftwareType,DateUTC
2013-02-02 00:00:00,0.0,-13.0,30.07,SW,230,1.0,2.0,53,0.00,,,0.00,Meteo,2013-02-02 06:00:00,
2013-02-02 00:05:00,0.0,-13.0,30.07,SSW,209,1.0,1.0,53,0.00,,,0.00,Meteo,2013-02-02 06:05:00,
2013-02-02 00:10:00,0.0,-13.0,30.07,SW,225,1.0,2.0,53,0.00,,,0.00,Meteo,2013-02-02 06:10:00,
2013-02-02 00:15:00,0.0,-13.0,30.07,South,189,0.0,2.0,54,0.00,,,0.00,Meteo,2013-02-02 06:15:00,
2013-02-02 00:20:00,0.0,-13.0,30.07,SW,216,1.0,3.0,54,0.00,,,0.00,Meteo,2013-02-02 06:20:00,
2013-02-02 00:25:00,0.0,-13.0,30.07,SW,215,0.0,1.0,54,0.00,,,0.00,Meteo,2013-02-02 06:25:00,
2013-02-02 00:30:00,0.0,-13.0,30.07,SW,216,1.0,3.0,54,0.00,,,0.00,Meteo,2013-02-02 06:30:00,
2013-02-02 00:35:00,0.0,-13.0,30.07,SSW,203,0.0,2.0,54,0.00,,,0.00,Meteo,2013-02-02 06:35:00,
2013-02-02 00:40:00,0.0,-13.0,30.07,SSW,199,1.0,3.0,54,0.00,,,0.00,Meteo,2013-02-02 06:40:00,
2013-02-02 00:45:00,0.0,-12.0,30.07,South,191,0.0,1.0,55,0.00,,,0.00,Meteo,2013-02-02 06:45:00,
2013-02-02 00:50:00,0.0,-12.0,30.06,South,184,2.0,4.0,55,0.00,,,0.00,Meteo,2013-02-02 06:50:00,
2013-02-02 00:55:00,0.0,-12.0,30.06,South,176,0.0,1.0,55,0.00,,,0.00,Meteo,2013-02-02 06:55:00,
2013-02-02 01:00:00,0.0,-12.0,30.07,SSW,200,1.0,2.0,55,0.00,,,0.00,Meteo,2013-02-02 07:00:00,
2013-02-02 01:05:00,0.0,-12.0,30.06,SW,232,0.0,1.0,55,0.00,,,0.00,Meteo,2013-02-02 07:05:00,
2013-02-02 01:10:00,0.0,-12.0,30.06,SW,232,1.0,1.0,55,0.00,,,0.00,Meteo,2013-02-02 07:10:00,
2013-02-02 01:15:00,0.0,-12.0,30.06,SW,232,0.0,1.0,56,0.00,,,0.00,Meteo,2013-02-02 07:15:00,
2013-02-02 01:20:00,0.0,-12.0,30.06,SW,220,1.0,3.0,56,0.00,,,0.00,Meteo,2013-02-02 07:20:00,
2013-02-02 01:25:00,0.0,-12.0,30.06,WSW,240,0.0,1.0,56,0.00,,,0.00,Meteo,2013-02-02 07:25:00,
2013-02-02 01:30:00,0.0,-12.0,30.06,SSW,208,0.0,1.0,56,0.00,,,0.00,Meteo,2013-02-02 07:30:00,
2013-02-02 01:35:00,0.0,-12.0,30.06,SSW,212,1.0,3.0,56,0.00,,,0.00,Meteo,2013-02-02 07:35:00,
2013-02-02 01:40:00,0.0,-12.0,30.06,WSW,240,1.0,1.0,57,0.00,,,0.00,Meteo,2013-02-02 07:40:00,
2013-02-02 01:45:00,0.0,-12.0,30.07,SW,219,1.0,2.0,57,0.00,,,0.00,Meteo,2013-02-02 07:45:00,
2013-02-02 01:50:00,0.0,-12.0,30.06,SW,234,0.0,1.0,57,0.00,,,0.00,Meteo,2013-02-02 07:50:00,
2013-02-02 01:55:00,0.0,-12.0,30.07,WSW,246,1.0,3.0,57,0.00,,,0.00,Meteo,2013-02-02 07:55:00,
2013-02-02 02:00:00,0.0,-12.0,30.07,SW,217,2.0,4.0,57,0.00,,,0.00,Meteo,2013-02-02 08:00:00,
2013-02-02 02:06:00,0.0,-12.0,30.07,SSW,212,1.0,3.0,57,0.00,,,0.00,Meteo,2013-02-02 08:06:00,
2013-02-02 02:12:00,0.0,-12.0,30.07,SSW,200,2.0,4.0,57,0.00,,,0.00,Meteo,2013-02-02 08:12:00,
2013-02-02 02:17:00,0.0,-12.0,30.07,SW,218,1.0,2.0,57,0.00,,,0.00,Meteo,2013-02-02 08:17:00,
2013-02-02 02:22:00,0.0,-11.0,30.07,SW,216,1.0,3.0,58,0.00,,,0.00,Meteo,2013-02-02 08:22:00,
2013-02-02 02:27:00,0.0,-11.0,30.07,SSW,203,2.0,3.0,58,0.00,,,0.00,Meteo,2013-02-02 08:27:00,
2013-02-02 02:32:00,0.0,-11.0,30.07,WSW,248,0.0,1.0,58,0.00,,,0.00,Meteo,2013-02-02 08:32:00,
2013-02-02 02:37:00,0.0,-11.0,30.07,SW,223,1.0,4.0,58,0.00,,,0.00,Meteo,2013-02-02 08:37:00,
2013-02-02 02:42:00,0.0,-11.0,30.07,SW,235,1.0,2.0,58,0.00,,,0.00,Meteo,2013-02-02 08:42:00,
2013-02-02 02:47:00,0.0,-11.0,30.07,SW,219,1.0,2.0,58,0.00,,,0.00,Meteo,2013-02-02 08:47:00,
2013-02-02 02:52:00,0.0,-11.0,30.07,SSW,199,0.0,1.0,59,0.00,,,0.00,Meteo,2013-02-02 08:52:00,
2013-02-02 02:57:00,0.0,-11.0,30.07,SW,226,1.0,2.0,59,0.00,,,0.00,Meteo,2013-02-02 08:57:00,
2013-02-02 03:02:00,0.0,-11.0,30.07,WSW,243,0.0,2.0,59,0.00,,,0.00,Meteo,2013-02-02 09:02:00,
2013-02-02 03:07:00,0.0,-11.0,30.07,SW,220,0.0,2.0,59,0.00,,,0.00,Meteo,2013-02-02 09:07:00,
2013-02-02 03:12:00,0.0,-11.0,30.07,WSW,254,0.0,1.0,59,0.00,,,0.00,Meteo,2013-02-02 09:12:00,
2013-02-02 03:17:00,0.0,-11.0,30.07,SW,236,0.0,2.0,59,0.00,,,0.00,Meteo,2013-02-02 09:17:00,
2013-02-02 03:22:00,0.0,-11.0,30.07,SW,229,0.0,3.0,59,0.00,,,0.00,Meteo,2013-02-02 09:22:00,
2013-02-02 03:27:00,0.0,-11.0,30.07,SW,228,2.0,3.0,59,0.00,,,0.00,Meteo,2013-02-02 09:27:00,
2013-02-02 03:32:00,0.0,-11.0,30.07,SSW,198,0.0,2.0,59,0.00,,,0.00,Meteo,2013-02-02 09:32:00,
2013-02-02 03:37:00,0.0,-11.0,30.07,SSW,211,2.0,4.0,60,0.00,,,0.00,Meteo,2013-02-02 09:37:00,
2013-02-02 03:42:00,0.0,-11.0,30.07,SW,220,1.0,3.0,60,0.00,,,0.00,Meteo,2013-02-02 09:42:00,
2013-02-02 03:47:00,0.0,-11.0,30.07,WSW,249,2.0,3.0,59,0.00,,,0.00,Meteo,2013-02-02 09:47:00,
2013-02-02 03:52:00,0.0,-11.0,30.07,SW,214,1.0,1.0,60,0.00,,,0.00,Meteo,2013-02-02 09:52:00,
2013-02-02 03:57:00,-1.0,-12.0,30.07,SSW,206,1.0,3.0,60,0.00,,,0.00,Meteo,2013-02-02 09:57:00,
2013-02-02 04:02:00,-1.0,-12.0,30.07,SW,234,0.0,1.0,60,0.00,,,0.00,Meteo,2013-02-02 10:02:00,
2013-02-02 04:07:00,-1.0,-12.0,30.07,North,0,0.0,0.0,60,0.00,,,0.00,Meteo,2013-02-02 10:07:00,
2013-02-02 04:12:00,-1.0,-12.0,30.07,SW,228,0.0,1.0,60,0.00,,,0.00,Meteo,2013-02-02 10:12:00,
2013-02-02 04:17:00,-1.0,-12.0,30.07,SW,228,1.0,2.0,60,0.00,,,0.00,Meteo,2013-02-02 10:17:00,
2013-02-02 04:22:00,-1.0,-12.0,30.07,SW,228,1.0,2.0,60,0.00,,,0.00,Meteo,2013-02-02 10:22:00,
2013-02-02 04:27:00,-1.0,-11.0,30.07,SW,233,1.0,2.0,61,0.00,,,0.00,Meteo,2013-02-02 10:27:00,
2013-02-02 04:32:00,-1.0,-12.0,30.07,North,0,0.0,0.0,60,0.00,,,0.00,Meteo,2013-02-02 10:32:00,
2013-02-02 04:37:00,-2.0,-12.0,30.07,West,261,1.0,2.0,61,0.00,,,0.00,Meteo,2013-02-02 10:37:00,
2013-02-02 04:42:00,-2.0,-12.0,30.08,SW,225,0.0,1.0,61,0.00,,,0.00,Meteo,2013-02-02 10:42:00,
2013-02-02 04:47:00,-2.0,-12.0,30.08,West,274,1.0,2.0,61,0.00,,,0.00,Meteo,2013-02-02 10:47:00,
2013-02-02 04:52:00,-2.0,-12.0,30.08,North,0,0.0,0.0,61,0.00,,,0.00,Meteo,2013-02-02 10:52:00,
2013-02-02 04:57:00,-2.0,-12.0,30.08,WSW,239,0.0,2.0,62,0.00,,,0.00,Meteo,2013-02-02 10:57:00,
2013-02-02 05:02:00,-2.0,-12.0,30.08,SW,222,1.0,2.0,61,0.00,,,0.00,Meteo,2013-02-02 11:02:00,
2013-02-02 05:07:00,-2.0,-12.0,30.08,SW,234,0.0,1.0,62,0.00,,,0.00,Meteo,2013-02-02 11:07:00,
2013-02-02 05:12:00,-3.0,-13.0,30.08,SW,232,0.0,1.0,62,0.00,,,0.00,Meteo,2013-02-02 11:12:00,
2013-02-02 05:17:00,-3.0,-12.0,30.08,SW,232,1.0,2.0,63,0.00,,,0.00,Meteo,2013-02-02 11:17:00,
2013-02-02 05:22:00,-3.0,-12.0,30.08,North,0,0.0,0.0,63,0.00,,,0.00,Meteo,2013-02-02 11:22:00,
2013-02-02 05:27:00,-3.0,-12.0,30.08,SW,232,0.0,1.0,63,0.00,,,0.00,Meteo,2013-02-02 11:27:00,
2013-02-02 05:32:00,-3.0,-12.0,30.08,North,0,0.0,0.0,63,0.00,,,0.00,Meteo,2013-02-02 11:32:00,
2013-02-02 05:37:00,-3.0,-12.0,30.08,SW,233,1.0,2.0,63,0.00,,,0.00,Meteo,2013-02-02 11:37:00,
2013-02-02 05:42:00,-3.0,-12.0,30.08,North,0,0.0,0.0,63,0.00,,,0.00,Meteo,2013-02-02 11:42:00,
2013-02-02 05:47:00,-3.0,-12.0,30.08,SW,219,0.0,2.0,64,0.00,,,0.00,Meteo,2013-02-02 11:47:00,
2013-02-02 05:52:00,-4.0,-13.0,30.08,WSW,241,1.0,4.0,64,0.00,,,0.00,Meteo,2013-02-02 11:52:00,
2013-02-02 05:57:00,-4.0,-13.0,30.09,SW,221,1.0,2.0,64,0.00,,,0.00,Meteo,2013-02-02 11:57:00,
2013-02-02 06:02:00,-4.0,-13.0,30.09,North,0,0.0,0.0,64,0.00,,,0.00,Meteo,2013-02-02 12:02:00,
2013-02-02 06:07:00,-4.0,-13.0,30.08,SW,217,0.0,1.0,64,0.00,,,0.00,Meteo,2013-02-02 12:07:00,
2013-02-02 06:12:00,-4.0,-13.0,30.09,North,0,0.0,0.0,64,0.00,,,0.00,Meteo,2013-02-02 12:12:00,
2013-02-02 06:17:00,-4.0,-13.0,30.09,North,0,0.0,0.0,64,0.00,,,0.00,Meteo,2013-02-02 12:17:00,
2013-02-02 06:22:00,-5.0,-14.0,30.09,North,0,0.0,0.0,65,0.00,,,0.00,Meteo,2013-02-02 12:22:00,
2013-02-02 06:27:00,-5.0,-14.0,30.09,SW,227,0.0,1.0,65,0.00,,,0.00,Meteo,2013-02-02 12:27:00,
2013-02-02 06:32:00,-5.0,-13.0,30.09,SW,232,0.0,1.0,66,0.00,,,0.00,Meteo,2013-02-02 12:32:00,
2013-02-02 06:37:00,-5.0,-13.0,30.09,SW,230,0.0,1.0,66,0.00,,,0.00,Meteo,2013-02-02 12:37:00,
2013-02-02 06:42:00,-5.0,-14.0,30.09,North,0,0.0,0.0,65,0.00,,,0.00,Meteo,2013-02-02 12:42:00,
2013-02-02 06:47:00,-5.0,-13.0,30.09,SW,228,0.0,2.0,66,0.00,,,0.00,Meteo,2013-02-02 12:47:00,
2013-02-02 06:53:00,-6.0,-14.0,30.09,North,0,0.0,0.0,66,0.00,,,0.00,Meteo,2013-02-02 12:53:00,
2013-02-02 06:58:00,-6.0,-14.0,30.09,SW,227,0.0,1.0,66,0.00,,,0.00,Meteo,2013-02-02 12:58:00,
2013-02-02 07:03:00,-6.0,-14.0,30.09,North,0,0.0,0.0,67,0.00,,,0.00,Meteo,2013-02-02 13:03:00,
2013-02-02 07:08:00,-6.0,-14.0,30.09,SW,216,0.0,2.0,67,0.00,,,0.00,Meteo,2013-02-02 13:08:00,
2013-02-02 07:13:00,-6.0,-14.0,30.09,North,0,0.0,0.0,67,0.00,,,0.00,Meteo,2013-02-02 13:13:00,
2013-02-02 07:18:00,-6.0,-14.0,30.09,SW,214,0.0,1.0,68,0.00,,,0.00,Meteo,2013-02-02 13:18:00,
2013-02-02 07:23:00,-6.0,-14.0,30.09,SW,215,0.0,1.0,68,0.00,,,0.00,Meteo,2013-02-02 13:23:00,
2013-02-02 07:28:00,-6.0,-14.0,30.09,SW,214,1.0,2.0,68,0.00,,,0.00,Meteo,2013-02-02 13:28:00,
2013-02-02 07:33:00,-6.0,-14.0,30.10,SW,235,0.0,1.0,68,0.00,,,0.00,Meteo,2013-02-02 13:33:00,
2013-02-02 07:38:00,-6.0,-14.0,30.09,North,0,0.0,0.0,68,0.00,,,0.00,Meteo,2013-02-02 13:38:00,
2013-02-02 07:43:00,-6.0,-14.0,30.09,North,0,0.0,0.0,68,0.00,,,0.00,Meteo,2013-02-02 13:43:00,
2013-02-02 07:48:00,-6.0,-14.0,30.10,WSW,243,0.0,1.0,68,0.00,,,0.00,Meteo,2013-02-02 13:48:00,
2013-02-02 07:53:00,-5.0,-13.0,30.09,North,0,0.0,0.0,68,0.00,,,0.00,Meteo,2013-02-02 13:53:00,
2013-02-02 07:58:00,-5.0,-13.0,30.10,North,0,0.0,0.0,68,0.00,,,0.00,Meteo,2013-02-02 13:58:00,
2013-02-02 08:03:00,-5.0,-13.0,30.10,SSW,207,0.0,1.0,69,0.00,,,0.00,Meteo,2013-02-02 14:03:00,
2013-02-02 08:08:00,-5.0,-13.0,30.10,SSW,209,0.0,1.0,69,0.00,,,0.00,Meteo,2013-02-02 14:08:00,
2013-02-02 08:13:00,-5.0,-13.0,30.10,SW,231,0.0,1.0,69,0.00,,,0.00,Meteo,2013-02-02 14:13:00,
2013-02-02 08:18:00,-4.0,-11.0,30.10,WSW,242,0.0,1.0,70,0.00,,,0.00,Meteo,2013-02-02 14:18:00,
2013-02-02 08:23:00,-4.0,-12.0,30.10,North,0,0.0,0.0,69,0.00,,,0.00,Meteo,2013-02-02 14:23:00,
2013-02-02 08:28:00,-4.0,-12.0,30.10,SW,220,1.0,3.0,69,0.00,,,0.00,Meteo,2013-02-02 14:28:00,
2013-02-02 08:33:00,-3.0,-11.0,30.10,SW,228,0.0,1.0,69,0.00,,,0.00,Meteo,2013-02-02 14:33:00,
2013-02-02 08:38:00,-3.0,-11.0,30.10,SSW,200,1.0,2.0,69,0.00,,,0.00,Meteo,2013-02-02 14:38:00,
2013-02-02 08:43:00,-2.0,-10.0,30.10,North,0,0.0,0.0,68,0.00,,,0.00,Meteo,2013-02-02 14:43:00,
2013-02-02 08:48:00,-2.0,-10.0,30.10,WSW,243,0.0,1.0,68,0.00,,,0.00,Meteo,2013-02-02 14:48:00,
2013-02-02 08:53:00,-1.0,-9.3,30.10,WSW,237,1.0,1.0,67,0.00,,,0.00,Meteo,2013-02-02 14:53:00,
2013-02-02 08:58:00,-1.0,-9.3,30.10,SW,214,1.0,3.0,67,0.00,,,0.00,Meteo,2013-02-02 14:58:00,
2013-02-02 09:03:00,0.0,-8.6,30.10,North,0,0.0,0.0,66,0.00,,,0.00,Meteo,2013-02-02 15:03:00,
2013-02-02 09:08:00,0.0,-9.0,30.09,SW,231,0.0,1.0,65,0.00,,,0.00,Meteo,2013-02-02 15:08:00,
2013-02-02 09:13:00,0.0,-9.0,30.10,North,0,0.0,0.0,65,0.00,,,0.00,Meteo,2013-02-02 15:13:00,
2013-02-02 09:18:00,0.0,-9.3,30.10,SSW,194,1.0,2.0,64,0.00,,,0.00,Meteo,2013-02-02 15:18:00,
2013-02-02 09:23:00,0.0,-9.6,30.10,South,176,0.0,2.0,63,0.00,,,0.00,Meteo,2013-02-02 15:23:00,
2013-02-02 09:28:00,1.0,-8.6,30.10,SSW,194,1.0,2.0,63,0.00,,,0.00,Meteo,2013-02-02 15:28:00,
2013-02-02 09:33:00,1.0,-9.3,30.10,North,0,0.0,0.0,61,0.00,,,0.00,Meteo,2013-02-02 15:33:00,
2013-02-02 09:38:00,1.0,-9.6,30.10,South,171,1.0,2.0,60,0.00,,,0.00,Meteo,2013-02-02 15:38:00,
2013-02-02 09:43:00,2.0,-8.7,30.10,SSW,194,0.0,1.0,60,0.00,,,0.00,Meteo,2013-02-02 15:43:00,
2013-02-02 09:48:00,2.0,-8.7,30.10,SSW,210,3.0,5.0,60,0.00,,,0.00,Meteo,2013-02-02 15:48:00,
2013-02-02 09:53:00,3.0,-8.1,30.10,South,179,2.0,3.0,59,0.00,,,0.00,Meteo,2013-02-02 15:53:00,
2013-02-02 09:58:00,3.0,-8.1,30.10,SSW,211,3.0,4.0,59,0.00,,,0.00,Meteo,2013-02-02 15:58:00,
2013-02-02 10:03:00,3.0,-8.4,30.10,SSW,200,2.0,4.0,58,0.00,,,0.00,Meteo,2013-02-02 16:03:00,
2013-02-02 10:08:00,4.0,-7.5,30.10,WSW,246,1.0,2.0,58,0.00,,,0.00,Meteo,2013-02-02 16:08:00,
2013-02-02 10:13:00,4.0,-7.5,30.10,South,187,0.0,1.0,58,0.00,,,0.00,Meteo,2013-02-02 16:13:00,
2013-02-02 10:18:00,5.0,-6.9,30.11,South,183,0.0,2.0,57,0.00,,,0.00,Meteo,2013-02-02 16:18:00,
2013-02-02 10:23:00,5.0,-7.6,30.11,SSW,206,1.0,3.0,55,0.00,,,0.00,Meteo,2013-02-02 16:23:00,
2013-02-02 10:28:00,6.0,-6.3,30.10,SW,215,2.0,3.0,56,0.00,,,0.00,Meteo,2013-02-02 16:28:00,
2013-02-02 10:33:00,6.0,-6.3,30.11,WSW,256,1.0,2.0,56,0.00,,,0.00,Meteo,2013-02-02 16:33:00,
2013-02-02 10:38:00,6.0,-6.0,30.10,SW,216,1.0,2.0,57,0.00,,,0.00,Meteo,2013-02-02 16:38:00,
2013-02-02 10:43:00,7.0,-5.7,30.10,SW,236,1.0,3.0,55,0.00,,,0.00,Meteo,2013-02-02 16:43:00,
2013-02-02 10:48:00,7.0,-5.7,30.10,WNW,291,1.0,1.0,55,0.00,,,0.00,Meteo,2013-02-02 16:48:00,
2013-02-02 10:53:00,7.0,-6.5,30.10,West,263,1.0,3.0,53,0.00,,,0.00,Meteo,2013-02-02 16:53:00,
2013-02-02 10:58:00,8.0,-5.2,30.10,SW,221,2.0,4.0,54,0.00,,,0.00,Meteo,2013-02-02 16:58:00,
2013-02-02 11:03:00,8.0,-5.2,30.09,WNW,285,0.0,1.0,54,0.00,,,0.00,Meteo,2013-02-02 17:03:00,
2013-02-02 11:08:00,8.0,-5.6,30.09,WSW,242,1.0,2.0,53,0.00,,,0.00,Meteo,2013-02-02 17:08:00,
2013-02-02 11:13:00,8.0,-5.6,30.09,SW,231,0.0,4.0,53,0.00,,,0.00,Meteo,2013-02-02 17:13:00,
2013-02-02 11:18:00,8.0,-5.6,30.09,SSW,200,0.0,1.0,53,0.00,,,0.00,Meteo,2013-02-02 17:18:00,
2013-02-02 11:23:00,9.0,-5.0,30.09,WSW,254,2.0,4.0,52,0.00,,,0.00,Meteo,2013-02-02 17:23:00,
2013-02-02 11:28:00,8.0,-6.0,30.09,NW,306,2.0,5.0,52,0.00,,,0.00,Meteo,2013-02-02 17:28:00,
2013-02-02 11:33:00,8.0,-6.0,30.09,NNW,348,3.0,4.0,52,0.00,,,0.00,Meteo,2013-02-02 17:33:00,
2013-02-02 11:38:00,8.0,-6.4,30.08,NNW,336,1.0,2.0,51,0.00,,,0.00,Meteo,2013-02-02 17:38:00,
2013-02-02 11:43:00,9.0,-5.4,30.08,WNW,282,0.0,1.0,51,0.00,,,0.00,Meteo,2013-02-02 17:43:00,
2013-02-02 11:48:00,9.0,-5.0,30.08,SW,215,1.0,3.0,52,0.00,,,0.00,Meteo,2013-02-02 17:48:00,
2013-02-02 11:53:00,10.0,-4.5,30.08,South,181,1.0,2.0,51,0.00,,,0.00,Meteo,2013-02-02 17:53:00,
2013-02-02 11:58:00,10.0,-5.3,30.07,North,1,1.0,2.0,49,0.00,,,0.00,Meteo,2013-02-02 17:58:00,
2013-02-02 12:03:00,11.0,-4.0,30.07,South,180,1.0,3.0,50,0.00,,,0.00,Meteo,2013-02-02 18:03:00,
2013-02-02 12:08:00,11.0,-4.4,30.07,South,179,2.0,3.0,49,0.00,,,0.00,Meteo,2013-02-02 18:08:00,
2013-02-02 12:14:00,11.0,-4.8,30.06,South,177,1.0,2.0,48,0.00,,,0.00,Meteo,2013-02-02 18:14:00,
2013-02-02 12:19:00,12.0,-3.9,30.06,SSE,156,1.0,2.0,48,0.00,,,0.00,Meteo,2013-02-02 18:19:00,
2013-02-02 12:24:00,12.0,-4.8,30.06,South,185,1.0,2.0,46,0.00,,,0.00,Meteo,2013-02-02 18:24:00,
2013-02-02 12:29:00,12.0,-4.8,30.06,South,186,2.0,4.0,46,0.00,,,0.00,Meteo,2013-02-02 18:29:00,
2013-02-02 12:34:00,12.0,-4.8,30.06,SSW,211,3.0,5.0,46,0.00,,,0.00,Meteo,2013-02-02 18:34:00,
2013-02-02 12:39:00,13.0,-3.9,30.05,SE,129,2.0,4.0,46,0.00,,,0.00,Meteo,2013-02-02 18:39:00,
2013-02-02 12:44:00,13.0,-3.9,30.05,SSE,155,1.0,2.0,46,0.00,,,0.00,Meteo,2013-02-02 18:44:00,
2013-02-02 12:49:00,13.0,-4.8,30.05,SW,226,3.0,5.0,44,0.00,,,0.00,Meteo,2013-02-02 18:49:00,
2013-02-02 12:54:00,13.0,-4.3,30.04,South,178,2.0,4.0,45,0.00,,,0.00,Meteo,2013-02-02 18:54:00,
2013-02-02 12:59:00,13.0,-4.8,30.04,SSW,201,3.0,6.0,44,0.00,,,0.00,Meteo,2013-02-02 18:59:00,
2013-02-02 13:04:00,14.0,-3.9,30.04,South,183,0.0,2.0,44,0.00,,,0.00,Meteo,2013-02-02 19:04:00,
2013-02-02 13:09:00,14.0,-4.4,30.04,South,171,2.0,4.0,43,0.00,,,0.00,Meteo,2013-02-02 19:09:00,
2013-02-02 13:14:00,14.0,-4.4,30.04,South,176,4.0,5.0,43,0.00,,,0.00,Meteo,2013-02-02 19:14:00,
2013-02-02 13:19:00,14.0,-3.9,30.04,SW,220,4.0,6.0,44,0.00,,,0.00,Meteo,2013-02-02 19:19:00,
2013-02-02 13:24:00,14.0,-4.9,30.04,South,181,3.0,4.0,42,0.00,,,0.00,Meteo,2013-02-02 19:24:00,
2013-02-02 13:29:00,14.0,-4.9,30.04,SSE,165,2.0,3.0,42,0.00,,,0.00,Meteo,2013-02-02 19:29:00,
2013-02-02 13:34:00,14.0,-4.9,30.03,SW,223,2.0,3.0,42,0.00,,,0.00,Meteo,2013-02-02 19:34:00,
2013-02-02 13:39:00,14.0,-6.4,30.03,SSW,209,4.0,6.0,39,0.00,,,0.00,Meteo,2013-02-02 19:39:00,
2013-02-02 13:44:00,14.0,-6.4,30.03,SSW,198,4.0,6.0,39,0.00,,,0.00,Meteo,2013-02-02 19:44:00,
2013-02-02 13:49:00,13.0,-6.8,30.03,SSW,204,2.0,4.0,40,0.00,,,0.00,Meteo,2013-02-02 19:49:00,
2013-02-02 13:54:00,14.0,-6.4,30.02,SSW,206,3.0,6.0,39,0.00,,,0.00,Meteo,2013-02-02 19:54:00,
2013-02-02 13:59:00,14.0,-5.9,30.02,SSW,205,3.0,4.0,40,0.00,,,0.00,Meteo,2013-02-02 19:59:00,
2013-02-02 14:04:00,14.0,-5.9,30.02,SW,218,3.0,5.0,40,0.00,,,0.00,Meteo,2013-02-02 20:04:00,
2013-02-02 14:09:00,14.0,-5.9,30.01,South,185,3.0,4.0,40,0.00,,,0.00,Meteo,2013-02-02 20:09:00,
2013-02-02 14:14:00,14.0,-6.9,30.01,SW,215,2.0,5.0,38,0.00,,,0.00,Meteo,2013-02-02 20:14:00,
2013-02-02 14:19:00,15.0,-5.0,30.01,SSW,200,4.0,5.0,40,0.00,,,0.00,Meteo,2013-02-02 20:19:00,
2013-02-02 14:24:00,15.0,-5.5,30.01,SSW,195,3.0,5.0,39,0.00,,,0.00,Meteo,2013-02-02 20:24:00,
2013-02-02 14:29:00,15.0,-5.5,30.01,SW,223,2.0,3.0,39,0.00,,,0.00,Meteo,2013-02-02 20:29:00,
2013-02-02 14:34:00,14.0,-5.9,30.01,SSW,203,1.0,2.0,40,0.00,,,0.00,Meteo,2013-02-02 20:34:00,
2013-02-02 14:39:00,14.0,-5.4,30.01,SSW,210,1.0,2.0,41,0.00,,,0.00,Meteo,2013-02-02 20:39:00,
2013-02-02 14:44:00,14.0,-6.4,30.01,SSW,212,2.0,4.0,39,0.00,,,0.00,Meteo,2013-02-02 20:44:00,
2013-02-02 14:49:00,14.0,-5.9,30.01,South,189,3.0,5.0,40,0.00,,,0.00,Meteo,2013-02-02 20:49:00,
2013-02-02 14:54:00,14.0,-5.9,30.01,SSE,164,1.0,2.0,40,0.00,,,0.00,Meteo,2013-02-02 20:54:00,
2013-02-02 14:59:00,14.0,-5.4,30.01,South,185,2.0,3.0,41,0.00,,,0.00,Meteo,2013-02-02 20:59:00,
2013-02-02 15:04:00,14.0,-5.9,30.01,SW,217,2.0,4.0,40,0.00,,,0.00,Meteo,2013-02-02 21:04:00,
2013-02-02 15:09:00,13.0,-6.3,30.01,SW,214,0.0,2.0,41,0.00,,,0.00,Meteo,2013-02-02 21:09:00,
2013-02-02 15:14:00,13.0,-6.3,30.01,SW,218,1.0,2.0,41,0.00,,,0.00,Meteo,2013-02-02 21:14:00,
2013-02-02 15:19:00,13.0,-6.3,30.01,SSW,199,1.0,3.0,41,0.00,,,0.00,Meteo,2013-02-02 21:19:00,
2013-02-02 15:24:00,13.0,-6.8,30.01,SSW,209,2.0,3.0,40,0.00,,,0.00,Meteo,2013-02-02 21:24:00,
2013-02-02 15:29:00,13.0,-6.3,30.00,WSW,237,1.0,3.0,41,0.00,,,0.00,Meteo,2013-02-02 21:29:00,
2013-02-02 15:34:00,13.0,-6.3,30.00,SW,234,0.0,2.0,41,0.00,,,0.00,Meteo,2013-02-02 21:34:00,
2013-02-02 15:39:00,14.0,-5.4,30.00,South,180,3.0,5.0,41,0.00,,,0.00,Meteo,2013-02-02 21:39:00,
2013-02-02 15:44:00,14.0,-6.9,30.00,West,263,2.0,4.0,38,0.00,,,0.00,Meteo,2013-02-02 21:44:00,
2013-02-02 15:49:00,14.0,-5.9,30.00,WNW,291,1.0,3.0,40,0.00,,,0.00,Meteo,2013-02-02 21:49:00,
2013-02-02 15:55:00,14.0,-5.9,30.00,SSW,209,3.0,5.0,40,0.00,,,0.00,Meteo,2013-02-02 21:55:00,
2013-02-02 16:00:00,14.0,-5.9,29.99,SW,231,1.0,2.0,40,0.00,,,0.00,Meteo,2013-02-02 22:00:00,
2013-02-02 16:05:00,13.0,-6.8,29.99,West,260,1.0,3.0,40,0.00,,,0.00,Meteo,2013-02-02 22:05:00,
2013-02-02 16:10:00,13.0,-6.3,29.99,WSW,242,1.0,2.0,41,0.00,,,0.00,Meteo,2013-02-02 22:10:00,
2013-02-02 16:15:00,13.0,-6.3,29.99,SW,233,0.0,3.0,41,0.00,,,0.00,Meteo,2013-02-02 22:15:00,
2013-02-02 16:21:00,13.0,-5.8,29.99,SSW,203,3.0,5.0,42,0.00,,,0.00,Meteo,2013-02-02 22:21:00,
2013-02-02 16:26:00,13.0,-5.3,29.99,WSW,255,1.0,2.0,43,0.00,,,0.00,Meteo,2013-02-02 22:26:00,
2013-02-02 16:31:00,13.0,-5.3,29.99,SSW,204,2.0,3.0,43,0.00,,,0.00,Meteo,2013-02-02 22:31:00,
2013-02-02 16:36:00,13.0,-5.3,29.99,WSW,257,3.0,6.0,43,0.00,,,0.00,Meteo,2013-02-02 22:36:00,
2013-02-02 16:41:00,12.0,-6.2,29.99,West,260,1.0,5.0,43,0.00,,,0.00,Meteo,2013-02-02 22:41:00,
2013-02-02 16:46:00,12.0,-6.2,29.99,WSW,246,0.0,1.0,43,0.00,,,0.00,Meteo,2013-02-02 22:46:00,
2013-02-02 16:51:00,12.0,-5.7,29.99,WSW,246,1.0,3.0,44,0.00,,,0.00,Meteo,2013-02-02 22:51:00,
2013-02-02 16:56:00,12.0,-5.7,29.99,SSW,204,2.0,4.0,44,0.00,,,0.00,Meteo,2013-02-02 22:56:00,
2013-02-02 17:01:00,12.0,-5.7,29.99,SSW,210,1.0,2.0,44,0.00,,,0.00,Meteo,2013-02-02 23:01:00,
2013-02-02 17:07:00,12.0,-6.2,29.98,SW,225,3.0,6.0,43,0.00,,,0.00,Meteo,2013-02-02 23:07:00,
2013-02-02 17:12:00,12.0,-5.7,29.98,SSW,204,2.0,4.0,44,0.00,,,0.00,Meteo,2013-02-02 23:12:00,
2013-02-02 17:17:00,11.0,-6.6,29.98,SSW,209,3.0,6.0,44,0.00,,,0.00,Meteo,2013-02-02 23:17:00,
2013-02-02 17:22:00,11.0,-6.2,29.98,SW,222,2.0,4.0,45,0.00,,,0.00,Meteo,2013-02-02 23:22:00,
2013-02-02 17:27:00,11.0,-6.2,29.98,SW,224,1.0,2.0,45,0.00,,,0.00,Meteo,2013-02-02 23:27:00,
2013-02-02 17:32:00,10.0,-7.1,29.98,SW,233,1.0,2.0,45,0.00,,,0.00,Meteo,2013-02-02 23:32:00,
2013-02-02 17:37:00,10.0,-7.1,29.98,SSW,201,0.0,1.0,45,0.00,,,0.00,Meteo,2013-02-02 23:37:00,
2013-02-02 17:42:00,10.0,-6.6,29.98,South,190,0.0,2.0,46,0.00,,,0.00,Meteo,2013-02-02 23:42:00,
2013-02-02 17:47:00,9.0,-7.1,29.97,North,0,0.0,0.0,47,0.00,,,0.00,Meteo,2013-02-02 23:47:00,
2013-02-02 17:52:00,9.0,-7.1,29.97,SSW,205,0.0,1.0,47,0.00,,,0.00,Meteo,2013-02-02 23:52:00,
2013-02-02 17:57:00,9.0,-7.1,29.97,SSW,211,0.0,1.0,47,0.00,,,0.00,Meteo,2013-02-02 23:57:00,
2013-02-02 18:02:00,8.0,-7.6,29.97,SSW,200,0.0,1.0,48,0.00,,,0.00,Meteo,2013-02-03 00:02:00,
2013-02-02 18:07:00,8.0,-7.6,29.97,North,0,0.0,0.0,48,0.00,,,0.00,Meteo,2013-02-03 00:07:00,
2013-02-02 18:12:00,8.0,-7.6,29.97,SSW,200,0.0,2.0,48,0.00,,,0.00,Meteo,2013-02-03 00:12:00,
2013-02-02 18:17:00,7.0,-8.1,29.97,North,0,0.0,0.0,49,0.00,,,0.00,Meteo,2013-02-03 00:17:00,
2013-02-02 18:22:00,7.0,-7.7,29.97,North,0,0.0,0.0,50,0.00,,,0.00,Meteo,2013-02-03 00:22:00,
2013-02-02 18:27:00,7.0,-7.7,29.96,SSW,199,0.0,2.0,50,0.00,,,0.00,Meteo,2013-02-03 00:27:00,
2013-02-02 18:32:00,6.0,-8.6,29.96,North,0,0.0,0.0,50,0.00,,,0.00,Meteo,2013-02-03 00:32:00,
2013-02-02 18:37:00,6.0,-8.2,29.96,South,188,1.0,1.0,51,0.00,,,0.00,Meteo,2013-02-03 00:37:00,
2013-02-02 18:42:00,6.0,-8.2,29.96,South,191,0.0,1.0,51,0.00,,,0.00,Meteo,2013-02-03 00:42:00,
2013-02-02 18:47:00,6.0,-7.8,29.96,South,190,1.0,2.0,52,0.00,,,0.00,Meteo,2013-02-03 00:47:00,
2013-02-02 18:52:00,6.0,-7.4,29.96,South,191,0.0,1.0,53,0.00,,,0.00,Meteo,2013-02-03 00:52:00,
2013-02-02 18:57:00,6.0,-7.4,29.96,North,0,0.0,0.0,53,0.00,,,0.00,Meteo,2013-02-03 00:57:00,
2013-02-02 19:02:00,6.0,-7.4,29.96,SSW,198,0.0,2.0,53,0.00,,,0.00,Meteo,2013-02-03 01:02:00,
2013-02-02 19:07:00,6.0,-7.1,29.96,South,191,1.0,3.0,54,0.00,,,0.00,Meteo,2013-02-03 01:07:00,
2013-02-02 19:12:00,7.0,-6.1,29.96,SSW,193,1.0,2.0,54,0.00,,,0.00,Meteo,2013-02-03 01:12:00,
2013-02-02 19:17:00,7.0,-6.5,29.96,South,173,1.0,2.0,53,0.00,,,0.00,Meteo,2013-02-03 01:17:00,
2013-02-02 19:22:00,8.0,-5.6,29.96,South,185,1.0,2.0,53,0.00,,,0.00,Meteo,2013-02-03 01:22:00,
2013-02-02 19:27:00,8.0,-6.0,29.96,South,184,1.0,2.0,52,0.00,,,0.00,Meteo,2013-02-03 01:27:00,
2013-02-02 19:32:00,8.0,-6.4,29.96,SSW,211,1.0,2.0,51,0.00,,,0.00,Meteo,2013-02-03 01:32:00,
2013-02-02 19:37:00,8.0,-6.4,29.96,SW,232,1.0,2.0,51,0.00,,,0.00,Meteo,2013-02-03 01:37:00,
2013-02-02 19:42:00,8.0,-6.4,29.96,SSW,207,1.0,3.0,51,0.00,,,0.00,Meteo,2013-02-03 01:42:00,
2013-02-02 19:47:00,8.0,-6.8,29.96,SW,215,1.0,2.0,50,0.00,,,0.00,Meteo,2013-02-03 01:47:00,
2013-02-02 19:52:00,8.0,-6.8,29.95,South,179,2.0,4.0,50,0.00,,,0.00,Meteo,2013-02-03 01:52:00,
2013-02-02 19:57:00,8.0,-6.8,29.95,SSW,213,1.0,2.0,50,0.00,,,0.00,Meteo,2013-02-03 01:57:00,
2013-02-02 20:02:00,8.0,-6.8,29.95,SSW,208,2.0,4.0,50,0.00,,,0.00,Meteo,2013-02-03 02:02:00,
2013-02-02 20:07:00,8.0,-6.8,29.95,SSW,209,1.0,3.0,50,0.00,,,0.00,Meteo,2013-02-03 02:07:00,
2013-02-02 20:12:00,8.0,-6.8,29.95,SSW,213,1.0,3.0,50,0.00,,,0.00,Meteo,2013-02-03 02:12:00,
2013-02-02 20:17:00,8.0,-6.8,29.95,SSW,212,3.0,5.0,50,0.00,,,0.00,Meteo,2013-02-03 02:17:00,
2013-02-02 20:22:00,8.0,-6.8,29.94,SSW,211,3.0,6.0,50,0.00,,,0.00,Meteo,2013-02-03 02:22:00,
2013-02-02 20:27:00,8.0,-6.8,29.94,SSW,205,2.0,4.0,50,0.00,,,0.00,Meteo,2013-02-03 02:27:00,
2013-02-02 20:33:00,8.0,-6.8,29.94,SSW,205,1.0,3.0,50,0.00,,,0.00,Meteo,2013-02-03 02:33:00,
2013-02-02 20:38:00,8.0,-6.8,29.94,SSW,211,0.0,1.0,50,0.00,,,0.00,Meteo,2013-02-03 02:38:00,
2013-02-02 20:43:00,8.0,-6.4,29.93,SW,219,2.0,4.0,51,0.00,,,0.00,Meteo,2013-02-03 02:43:00,
2013-02-02 20:48:00,8.0,-6.4,29.94,SW,227,2.0,3.0,51,0.00,,,0.00,Meteo,2013-02-03 02:48:00,
2013-02-02 20:53:00,8.0,-6.4,29.94,SSW,199,2.0,3.0,51,0.00,,,0.00,Meteo,2013-02-03 02:53:00,
2013-02-02 20:58:00,8.0,-6.4,29.94,SW,214,2.0,4.0,51,0.00,,,0.00,Meteo,2013-02-03 02:58:00,
2013-02-02 21:03:00,8.0,-6.4,29.94,SSW,202,1.0,3.0,51,0.00,,,0.00,Meteo,2013-02-03 03:03:00,
2013-02-02 21:08:00,8.0,-6.4,29.94,SSW,202,0.0,2.0,51,0.00,,,0.00,Meteo,2013-02-03 03:08:00,
2013-02-02 21:13:00,8.0,-6.4,29.94,SW,217,2.0,4.0,51,0.00,,,0.00,Meteo,2013-02-03 03:13:00,
2013-02-02 21:18:00,8.0,-6.4,29.94,SW,218,1.0,3.0,51,0.00,,,0.00,Meteo,2013-02-03 03:18:00,
2013-02-02 21:23:00,8.0,-6.4,29.94,SSW,212,3.0,6.0,51,0.00,,,0.00,Meteo,2013-02-03 03:23:00,
2013-02-02 21:28:00,8.0,-6.4,29.94,SW,220,2.0,3.0,51,0.00,,,0.00,Meteo,2013-02-03 03:28:00,
2013-02-02 21:33:00,8.0,-6.4,29.93,SSW,210,5.0,7.0,51,0.00,,,0.00,Meteo,2013-02-03 03:33:00,
2013-02-02 21:38:00,8.0,-6.4,29.93,SSW,198,5.0,7.0,51,0.00,,,0.00,Meteo,2013-02-03 03:38:00,
2013-02-02 21:43:00,8.0,-6.8,29.93,South,177,2.0,3.0,50,0.00,,,0.00,Meteo,2013-02-03 03:43:00,
2013-02-02 21:48:00,8.0,-6.4,29.94,SSW,208,2.0,4.0,51,0.00,,,0.00,Meteo,2013-02-03 03:48:00,
2013-02-02 21:53:00,8.0,-6.4,29.94,South,191,3.0,6.0,51,0.00,,,0.00,Meteo,2013-02-03 03:53:00,
2013-02-02 21:58:00,8.0,-6.4,29.94,SSW,209,3.0,5.0,51,0.00,,,0.00,Meteo,2013-02-03 03:58:00,
2013-02-02 22:03:00,8.0,-6.4,29.93,SSW,206,3.0,5.0,51,0.00,,,0.00,Meteo,2013-02-03 04:03:00,
2013-02-02 22:08:00,8.0,-6.4,29.92,South,188,2.0,4.0,51,0.00,,,0.00,Meteo,2013-02-03 04:08:00,
2013-02-02 22:13:00,8.0,-6.0,29.92,SSW,192,3.0,5.0,52,0.00,,,0.00,Meteo,2013-02-03 04:13:00,
2013-02-02 22:19:00,8.0,-5.6,29.92,SSW,204,3.0,6.0,53,0.00,,,0.00,Meteo,2013-02-03 04:19:00,
2013-02-02 22:24:00,7.0,-6.5,29.92,SSW,198,4.0,7.0,53,0.00,,,0.00,Meteo,2013-02-03 04:24:00,
2013-02-02 22:29:00,7.0,-6.1,29.92,SSW,192,3.0,7.0,54,0.00,,,0.00,Meteo,2013-02-03 04:29:00,
2013-02-02 22:34:00,7.0,-6.1,29.92,SW,224,3.0,8.0,54,0.00,,,0.00,Meteo,2013-02-03 04:34:00,
2013-02-02 22:39:00,7.0,-5.7,29.92,SSW,209,5.0,8.0,55,0.00,,,0.00,Meteo,2013-02-03 04:39:00,
2013-02-02 22:44:00,7.0,-5.7,29.92,SW,217,4.0,7.0,55,0.00,,,0.00,Meteo,2013-02-03 04:44:00,
2013-02-02 22:49:00,7.0,-5.0,29.91,SSW,207,2.0,4.0,57,0.00,,,0.00,Meteo,2013-02-03 04:49:00,
2013-02-02 22:54:00,7.0,-5.0,29.92,South,189,2.0,4.0,57,0.00,,,0.00,Meteo,2013-02-03 04:54:00,
2013-02-02 22:59:00,7.0,-5.0,29.92,SSW,204,3.0,7.0,57,0.00,,,0.00,Meteo,2013-02-03 04:59:00,
2013-02-02 23:00:00,7.0,-5.0,29.92,SSW,204,3.0,7.0,57,0.00,,,0.00,Meteo,2013-02-03 05:00:00,
2013-02-02 23:16:00,7.0,-3.6,29.91,SSW,197,2.0,5.0,61,0.00,,,0.00,Meteo,2013-02-03 05:16:00,
2013-02-02 23:21:00,7.0,-3.9,29.91,SSW,204,2.0,6.0,60,0.00,,,0.00,Meteo,2013-02-03 05:21:00,
2013-02-02 23:25:00,7.0,-3.6,29.91,SSW,195,3.0,6.0,61,0.00,,,0.00,Meteo,2013-02-03 05:25:00,
2013-02-02 23:30:00,7.0,-3.3,29.91,SW,214,1.0,3.0,62,0.00,,,0.00,Meteo,2013-02-03 05:30:00,
2013-02-02 23:35:00,7.0,-3.3,29.91,SSW,207,0.0,2.0,62,0.00,,,0.00,Meteo,2013-02-03 05:35:00,
2013-02-02 23:40:00,7.0,-3.3,29.91,SW,218,2.0,4.0,62,0.00,,,0.00,Meteo,2013-02-03 05:40:00,
2013-02-02 23:45:00,6.0,-3.9,29.91,SSW,208,2.0,3.0,63,0.00,,,0.00,Meteo,2013-02-03 05:45:00,
2013-02-02 23:46:00,6.0,-3.9,29.91,SW,236,1.0,4.0,63,0.00,,,0.00,Meteo,2013-02-03 05:46:00,
2013-02-02 23:51:00,6.0,-3.9,29.91,WSW,252,3.0,5.0,63,0.00,,,0.00,Meteo,2013-02-03 05:51:00,
2013-02-02 23:56:00,6.0,-3.2,29.91,SSW,213,1.0,3.0,65,0.00,,,0.00,Meteo,2013-02-03 05:56:00,